Renton, WA

3:56 PM PST on January 16, 2018 (GMT -0800)
Renton Municipal

Weather History for KRNT - February, 2013

Change the Weather History Date:

Monday, February 11, 2013

  Actual Average Record
Temperature  
Mean Temperature 42 °F -  
Max Temperature 48 °F 48 °F 61 °F (2004)
Min Temperature 37 °F 35 °F 30 °F (2003)
Degree Days  
Heating Degree Days 22    
Moisture  
Dew Point 39 °F    
Average Humidity 82    
Maximum Humidity 97    
Minimum Humidity 66    
Precipitation  
Precipitation 0.00 in - - ()
Sea Level Pressure  
Sea Level Pressure 30.36 in    
Wind  
Wind Speed 1 mph (SSE)    
Max Wind Speed 7 mph    
Max Gust Speed -    
Visibility 9 miles    
Events      
Averages and records for this station are not official NWS values.
T = Trace of Precipitation, MM = Missing Value Source: NWS Daily Summary

Daily Weather History Graph

Daily Weather History Graph

Search for Another Location

Airport or City:

Trip Planner

Search our weather history database for the weather conditions in past years. The results will help you decide how hot, cold, wet, or windy it might be!

Date:

Astronomy

Feb. 11, 2013 Rise Set
Actual Time 7:20 AM PST 5:26 PM PST
Civil Twilight 6:48 AM PST 5:58 PM PST
Nautical Twilight 6:12 AM PST 6:34 PM PST
Astronomical Twilight 5:36 AM PST 7:10 PM PST
Moon 7:37 AM PST (2/11) 7:42 PM PST (2/11)
Length of Visible Light 11h 10m
Length of Day
10h 06m
Waxing Crescent, 3% of the Moon is Illuminated
Feb 11
Waxing Crescent
Feb 17
First Quarter
Feb 25
Full
Mar 4
Last Quarter
Mar 11
New

Hourly Weather History & Observations

Time (PST) Temp. Windchill Dew Point Humidity Pressure Visibility Wind Dir Wind Speed Gust Speed Precip Events Conditions
12:53 AM 43.0 °F - 37.9 °F 82% 30.37 in 10.0 mi Calm Calm - N/A   Overcast
1:53 AM 43.0 °F - 39.0 °F 86% 30.37 in 8.0 mi Calm Calm - 0.00 in   Overcast
2:53 AM 39.9 °F - 39.0 °F 97% 30.36 in 8.0 mi Calm Calm - N/A   Overcast
3:53 AM 39.9 °F - 39.0 °F 97% 30.35 in 8.0 mi Calm Calm - N/A   Overcast
4:53 AM 39.9 °F - 37.9 °F 93% 30.36 in 8.0 mi Calm Calm - N/A   Overcast
5:53 AM 39.9 °F - 37.9 °F 93% 30.37 in 9.0 mi Calm Calm - N/A   Overcast
6:53 AM 37.9 °F - 37.0 °F 97% 30.36 in 8.0 mi Calm Calm - N/A   Mostly Cloudy
7:53 AM 39.9 °F - 37.9 °F 93% 30.36 in 7.0 mi Calm Calm - N/A   Overcast
8:05 AM 39.2 °F - 37.4 °F 93% 30.34 in 8.0 mi Calm Calm - N/A   Overcast
8:20 AM 39.2 °F 37.0 °F 37.4 °F 93% 30.34 in 8.0 mi SE 3.5 mph - N/A   Overcast
8:53 AM 41.0 °F - 37.9 °F 89% 30.37 in 7.0 mi Calm Calm - N/A   Overcast
9:53 AM 43.0 °F - 37.9 °F 82% 30.38 in 8.0 mi Calm Calm - N/A   Overcast
10:53 AM 44.1 °F 42.5 °F 37.9 °F 79% 30.38 in 10.0 mi South 3.5 mph - N/A   Overcast
11:53 AM 46.0 °F 43.9 °F 37.0 °F 71% 30.37 in 10.0 mi SE 4.6 mph - N/A   Overcast
12:53 PM 46.9 °F - 36.0 °F 66% 30.35 in 10.0 mi South 4.6 mph - N/A   Overcast
1:34 PM 46.4 °F 42.9 °F 35.6 °F 66% 30.34 in 10.0 mi SSW 6.9 mph - N/A   Overcast
1:53 PM 46.9 °F - 36.0 °F 66% 30.35 in 10.0 mi South 4.6 mph - N/A   Overcast
2:53 PM 48.0 °F - 37.0 °F 66% 30.35 in 10.0 mi South 3.5 mph - N/A   Overcast
3:11 PM 48.2 °F - 37.4 °F 66% 30.33 in 10.0 mi SSW 4.6 mph - N/A   Overcast
3:53 PM 48.0 °F - 37.0 °F 66% 30.35 in 10.0 mi SSW 4.6 mph - N/A   Overcast
4:53 PM 46.9 °F - 37.9 °F 71% 30.35 in 10.0 mi Calm Calm - N/A   Overcast
5:53 PM 46.9 °F - 39.9 °F 77% 30.35 in 10.0 mi East 3.5 mph - N/A   Overcast
6:53 PM 46.0 °F - 39.9 °F 79% 30.36 in 10.0 mi Calm Calm - N/A   Overcast
7:41 PM 46.4 °F 44.3 °F 39.2 °F 76% 30.34 in 10.0 mi East 4.6 mph - N/A   Overcast
7:53 PM 45.0 °F 42.6 °F 41.0 °F 86% 30.36 in 10.0 mi East 4.6 mph - N/A   Overcast
8:09 PM 44.6 °F 43.1 °F 41.0 °F 87% 30.34 in 10.0 mi East 3.5 mph - N/A   Overcast
8:53 PM 45.0 °F 41.2 °F 41.0 °F 86% 30.35 in 10.0 mi East 6.9 mph - N/A   Overcast
9:53 PM 45.0 °F - 41.0 °F 86% 30.36 in 10.0 mi Calm Calm - N/A   Overcast
10:53 PM 45.0 °F - 41.0 °F 86% 30.36 in 10.0 mi Calm Calm - N/A   Overcast
11:14 PM 44.6 °F - 41.0 °F 87% 30.35 in 10.0 mi Calm Calm - N/A   Overcast
11:35 PM 44.6 °F - 41.0 °F 87% 30.35 in 9.0 mi Calm Calm - N/A   Overcast
11:53 PM 45.0 °F - 42.1 °F 90% 30.38 in 10.0 mi Calm Calm - N/A   Overcast